OPS 6630 DEB

Satellite information

Favourite Embed

Satellite Type and Status

DEBRISIN ORBIT

Key statistics

Satellite OPS 6630 DEB at a glance.

Uptime

18980

Days in orbit

Revolutions

≈ 12.6

Per day

Orbit

SSO

Sun Synchronous Orbit

Inclination

97.0

Latest

Satellite identification and parameters

Extended collection of information and parameters for OPS 6630 DEB.

Object identification

Identified? True

Debris? True

Object name: OPS 6630 DEB

International designator: 1973-088F

Object number (NORAD): 9323

Object ID (CCSDS): 9323

Country: UNITED STATES OF AMERICA (US)

Current information (Y/N): Y

RCS size: SMALL

Orbital parameters

Period: 114.368 minutes

Inclination: 97.0288 deg

SMA: 7804.813 km

Apoapsis: 1445.944 km

Periapsis: 1407.412 km

RAAN: 296.4729 deg

Eccentricy: 0.00246848

Argument of periapsis: 67.0957 deg

Mean anomaly: 61.9871 deg

Mean motion: 12.59096407 rev/day

Mean motion (dot): 0.00000007 rev/day2

B* drag term: 0.00015196029 1/REarth

Two-line elements (TLE)

Creation date: Oct. 27, 2025, 2:46 a.m.

Reference frame: TEME

Reference center: EARTH

Epoch: Oct. 26, 2025, 1:36 p.m. UTC

TLE line 0: 0 OPS 6630 DEB

TLE line 1: 1 09323U 73088F 25299.56682400 .00000007 00000-0 15196-3 0 9993

TLE line 2: 2 09323 97.0288 296.4729 0024685 67.0957 61.9871 12.59096407287126

Live tracking on map

Real-time ground track for satellite OPS 6630 DEB.

In-orbit conjunctions

A list of the most updated potential collisions computed for object OPS 6630 DEB.

Target Orbit TCA Probability of collision Miss distance Type
COSMOS 2215 LEO 2025-07-26 23:18:12 0.0003987297 415.0 (m) PAYLOAD
COSMOS 1436 LEO 2025-01-01 02:15:52 0.0002340334 265.0 (m) PAYLOAD

Associated space launch

Large reconnaissance satellite equipped with four return capsules.

OPS 6630 DEB was lifted into orbit during the mission ‘Titan IIID | KH-9 7’, on board a Titan IIID space rocket.

The launch took place on Nov. 10, 1973, 8:12 p.m. from Space Launch Complex 4E.

For more information about the launch, click the button.

Launch to space Titan IIID | KH-9 7
Titan IIID | KH-9 7

Agency: N/A

Status: Launch Successful

Launch date: Nov. 10, 1973, 8:12 p.m. UTC

Rocket: Titan IIID

Launch pad: Space Launch Complex 4E

Location: Vandenberg SFB, CA, USA

...

Latest news about this satellite

There are no fresh news available about this satellite. Check back as we update our databases every day.


Newsletter sign-up

Weekly statistics, charts and insights to help you stay on top of the space industry.